Weather History for PAIL - April, 2013

Change the Weather History Date:

Wednesday, April 24, 2013

  Actual Average Record
Temperature  
Mean Temperature 42 °F -  
Max Temperature 53 °F 44 °F - (-1)
Min Temperature 32 °F 29 °F - (-1)
Degree Days  
Heating Degree Days 23    
Moisture  
Dew Point 30 °F    
Average Humidity 65    
Maximum Humidity 96    
Minimum Humidity 25    
Precipitation  
Precipitation 0.00 in - - ()
Sea Level Pressure  
Sea Level Pressure 30.22 in    
Wind  
Wind Speed 7 mph (NW)    
Max Wind Speed 21 mph    
Max Gust Speed 25 mph    
Visibility 10 miles    
Events      
Averages and records for this station are not official NWS values.
T = Trace of Precipitation, MM = Missing Value Source: NWS Daily Summary

Daily Weather History Graph

Daily Weather History Graph

Search for Another Location

Airport or City:

Trip Planner

Search our weather history database for the weather conditions in past years. The results will help you decide how hot, cold, wet, or windy it might be!

Date:

Astronomy

Apr. 24, 2013 Rise Set
Actual Time 6:36 AM AKDT 10:00 PM AKDT
Civil Twilight 5:47 AM AKDT 10:50 PM AKDT
Nautical Twilight 4:37 AM AKDT 12:01 AM AKDT
Astronomical Twilight 2:50 AM AKDT 1:45 AM AKDT
Moon 9:11 PM AKDT (4/24) 6:03 AM AKDT (4/24)
Length of Visible Light 17h 02m
Length of Day
15h 23m
Waxing Gibbous, 99% of the Moon is Illuminated
Apr 24
Waxing Gibbous
Apr 25
Full
May 2
Last Quarter
May 9
New
May 17
First Quarter

Hourly Weather History & Observations

Time (AKDT) Temp. Windchill Dew Point Humidity Pressure Visibility Wind Dir Wind Speed Gust Speed Precip Events Conditions
12:53 AM 35.1 °F - 33.1 °F 92% 30.39 in 10.0 mi Calm Calm - N/A   Clear
1:53 AM 34.0 °F 29.8 °F 33.1 °F 96% 30.38 in 10.0 mi WNW 4.6 mph - N/A   Clear
2:53 AM 34.0 °F 28.8 °F 32.0 °F 92% 30.37 in 10.0 mi WNW 5.8 mph - N/A   Clear
3:53 AM 34.0 °F 28.8 °F 32.0 °F 92% 30.35 in 10.0 mi WNW 5.8 mph - N/A   Clear
4:53 AM 33.1 °F 27.7 °F 30.9 °F 92% 30.35 in 10.0 mi NW 5.8 mph - N/A   Clear
5:53 AM 33.1 °F 30.0 °F 32.0 °F 96% 30.35 in 10.0 mi NW 3.5 mph - N/A   Clear
6:53 AM 32.0 °F - 30.9 °F 96% 30.33 in 10.0 mi Calm Calm - N/A   Clear
7:53 AM 34.0 °F 29.8 °F 32.0 °F 92% 30.31 in 10.0 mi WNW 4.6 mph - N/A   Clear
8:53 AM 36.0 °F 33.3 °F 34.0 °F 93% 30.30 in 10.0 mi West 3.5 mph - N/A   Clear
9:53 AM 41.0 °F 38.0 °F 36.0 °F 82% 30.29 in 10.0 mi NW 4.6 mph - N/A   Clear
10:53 AM 46.0 °F 40.6 °F 33.1 °F 61% 30.27 in 10.0 mi WNW 11.5 mph - N/A   Clear
11:53 AM 50.0 °F - 33.1 °F 52% 30.25 in 10.0 mi WNW 8.1 mph - N/A   Clear
12:53 PM 48.9 °F - 30.9 °F 50% 30.22 in 10.0 mi WNW 15.0 mph - N/A   Clear
1:53 PM 51.1 °F - 28.9 °F 43% 30.21 in 10.0 mi WNW 9.2 mph 18.4 mph N/A   Overcast
2:53 PM 52.0 °F - 26.1 °F 37% 30.18 in 10.0 mi NW 13.8 mph 21.9 mph N/A   Overcast
3:53 PM 52.0 °F - 27.0 °F 38% 30.15 in 10.0 mi WNW 17.3 mph - N/A   Overcast
4:53 PM 50.0 °F - 26.1 °F 39% 30.14 in 10.0 mi NW 20.7 mph 24.2 mph N/A   Overcast
5:53 PM 48.9 °F - 26.1 °F 41% 30.12 in 10.0 mi WNW 16.1 mph 24.2 mph N/A   Overcast
6:53 PM 46.9 °F - 25.0 °F 42% 30.09 in 10.0 mi NW 17.3 mph 24.2 mph N/A   Overcast
7:53 PM 46.0 °F 40.6 °F 24.1 °F 42% 30.08 in 10.0 mi NW 11.5 mph - N/A   Overcast
8:53 PM 45.0 °F 40.6 °F 27.0 °F 49% 30.05 in 10.0 mi WNW 8.1 mph - N/A   Overcast
9:53 PM 44.1 °F 36.8 °F 26.1 °F 49% 30.05 in 10.0 mi NNW 16.1 mph 25.3 mph N/A   Overcast
10:53 PM 39.9 °F 30.8 °F 26.1 °F 58% 30.05 in 10.0 mi NNW 18.4 mph 25.3 mph N/A   Overcast
11:53 PM 37.0 °F 28.5 °F 28.0 °F 70% 30.04 in 10.0 mi North 13.8 mph 21.9 mph N/A   Clear